Location: Penton Mewsey
(51.2167°N, 1.5167°W)
Time: 23:27:56
(UTC+00:00)

STARLINK-1114 - Pass Details

Date: 30 March 2020
Orbit: 548 x 551 km, 53.0° (Epoch: 29 May)

Event Time Altitude Azimuth Distance (km) Brightness Sun altitude
Rises 19:37:06 0° 288° (WNW) 2,726 9.5 -10.0°
Reaches altitude 10° 19:39:21 10° 287° (WNW) 1,830 7.9 -10.4°
Maximum altitude 19:43:30 80° 201° (SSW) 565 3.6 -11.0°
Enters shadow 19:46:39 17° 116° (ESE) 1,433 5.1 -11.4°
